Flag for U.S.A. Weather past 2 weeks in St. George, Utah, U.S.A.

Now
81 °F

Clear.


Feels Like: 79 °F
Forecast: 67 / 94 °F
Wind: 6 mph from Northwest

Location: Saint George

Current Time: Sep 1, 2014 at 2:14:26 AM

Latest Report: Sep 1, 2014 at 1:35 AM


Visibility: 10 mi

Pressure: 29.86 "Hg

Humidity: 18%

Dew point: 34 °F

Location of St. GeorgeLocation

Historic Weather in St. George — Graph

°F

St. George temperature yesterday

Maximum temperature yesterday: 99 °F (at 3:15 PM)
Minimum temperature yesterday: 66 °F (at 7:15 AM)
Average temperature yesterday: 85 °F

Past Weeks' High & Low Weather Summary

 TemperatureHumidityPressure
High102 °F (Aug 17, 4:35 PM)88% (Aug 19, 10:55 AM)30.21 "Hg (Aug 19, 10:55 AM)
Low61 °F (Aug 27, 7:35 AM)10% (Aug 17, 6:55 PM)29.78 "Hg (Aug 30, 7:35 PM)
Average80 °F36%29.97 "Hg
* Reported Aug 17 1:15 AM — Sep 1 1:15 AM, St. George, Weather by CustomWeather, © 2014

Note: Actual official high and low records may vary slightly from our data, if they occured in-between our weather recording intervals... More about our weather records

Advertising

St. George weather history for previous 24 hours

 ConditionsComfort  
Time TempWeatherWind HumidityBarometerVisibility
1:15 AM
Sep 1
79 °FClear.5 mph20%29.86 "Hg10 mi
12:55 AM79 °FClear.3 mph20%29.85 "Hg10 mi
12:35 AM79 °FClear.5 mph20%29.85 "Hg10 mi
11:55 PM
Aug 31
81 °FClear.3 mph18%29.84 "Hg10 mi
11:35 PM82 °FClear.5 mph17%29.84 "Hg10 mi
11:15 PM81 °FClear.6 mph18%29.84 "Hg10 mi
10:55 PM84 °FClear.6 mph16%29.84 "Hg10 mi
10:35 PM84 °FClear.No wind16%29.84 "Hg10 mi
10:15 PM82 °FClear.No wind17%29.83 "Hg10 mi
9:55 PM82 °FClear.5 mph17%29.83 "Hg10 mi
9:35 PM84 °FClear.3 mph16%29.83 "Hg10 mi
9:15 PM90 °FClear.8 mph14%29.82 "Hg10 mi
8:55 PM90 °FSunny.8 mph14%29.82 "Hg10 mi
8:35 PM91 °FSunny.7 mph13%29.81 "Hg10 mi
8:15 PM91 °FSunny.8 mph13%29.80 "Hg10 mi
7:55 PM93 °FSunny.9 mph12%29.80 "Hg10 mi
7:35 PM95 °FSunny.14 mph11%29.79 "Hg10 mi
7:15 PM97 °FSunny.15 mph11%29.79 "Hg10 mi
6:55 PM97 °FSunny.17 mph11%29.79 "Hg10 mi
6:35 PM97 °FSunny.15 mph11%29.79 "Hg10 mi
5:55 PM99 °FSunny.14 mph10%29.80 "Hg10 mi
5:35 PM99 °FSunny.14 mph10%29.80 "Hg10 mi
5:15 PM99 °FSunny.16 mph10%29.80 "Hg10 mi
4:55 PM99 °FSunny.16 mph11%29.81 "Hg10 mi
4:35 PM99 °FSunny.17 mph11%29.81 "Hg10 mi
4:15 PM99 °FSunny.10 mph11%29.82 "Hg10 mi
3:55 PM99 °FSunny.10 mph11%29.83 "Hg10 mi
3:35 PM99 °FSunny.8 mph10%29.84 "Hg10 mi
3:15 PM99 °FSunny.13 mph11%29.84 "Hg10 mi
2:55 PM97 °FSunny.10 mph12%29.85 "Hg10 mi
2:35 PM97 °FSunny.10 mph13%29.86 "Hg10 mi
2:15 PM97 °FSunny.14 mph13%29.86 "Hg10 mi
1:55 PM95 °FSunny.9 mph14%29.87 "Hg10 mi
1:35 PM93 °FSunny.6 mph15%29.87 "Hg10 mi
1:15 PM93 °FSunny.6 mph15%29.88 "Hg10 mi
12:55 PM91 °FSunny.9 mph16%29.89 "Hg10 mi
12:35 PM91 °FSunny.6 mph16%29.89 "Hg10 mi
11:55 AM90 °FSunny.7 mph18%29.90 "Hg10 mi
11:35 AM88 °FSunny.3 mph19%29.91 "Hg10 mi
11:15 AM84 °FSunny.3 mph22%29.91 "Hg10 mi
10:55 AM82 °FSunny.5 mph23%29.92 "Hg10 mi
10:35 AM82 °FSunny.No wind23%29.91 "Hg10 mi
10:15 AM81 °FSunny.5 mph24%29.91 "Hg10 mi
9:55 AM81 °FSunny.No wind26%29.90 "Hg10 mi
9:35 AM79 °FSunny.3 mph28%29.90 "Hg10 mi
9:15 AM77 °FSunny.6 mph28%29.90 "Hg10 mi
8:55 AM75 °FSunny.5 mph29%29.89 "Hg10 mi
8:35 AM73 °FSunny.5 mph31%29.89 "Hg10 mi
8:15 AM72 °FSunny.No wind31%29.88 "Hg10 mi
7:55 AM72 °FClear.No wind33%29.88 "Hg10 mi
7:35 AM72 °FClear.No wind31%29.87 "Hg10 mi
7:15 AM66 °FClear.5 mph37%29.87 "Hg10 mi
6:55 AM68 °FClear.6 mph35%29.86 "Hg10 mi
6:35 AM70 °FClear.3 mph33%29.85 "Hg10 mi
6:15 AM70 °FClear.No wind33%29.84 "Hg10 mi
5:55 AM70 °FClear.No wind33%29.84 "Hg10 mi
5:35 AM75 °FClear.7 mph25%29.83 "Hg10 mi
5:15 AM73 °FClear.7 mph27%29.82 "Hg10 mi
4:55 AM73 °FClear.8 mph29%29.81 "Hg10 mi
4:35 AM73 °FClear.5 mph29%29.81 "Hg10 mi
4:15 AM77 °FClear.8 mph22%29.80 "Hg10 mi
3:55 AM79 °FClear.6 mph21%29.80 "Hg10 mi
3:35 AM81 °FClear.12 mph20%29.81 "Hg10 mi
2:55 AM81 °FClear.9 mph20%29.80 "Hg10 mi
2:35 AM81 °FClear.6 mph20%29.80 "Hg10 mi
2:15 AM81 °FClear.9 mph20%29.81 "Hg10 mi
Weather by CustomWeather, © 2014

See weather overviewHow to use our weather pages